Location: Clans
(44.2907°N, 5.9957°E)
Time: 15:38:28
(UTC+00:00)

Daily predictions for brighter satellites

Satellite Brightness Start Highest point End
(mag) Time Altitude Azimuth Time Altitude Azimuth Time Altitude Azimuth
BREEZE-M DEB (TANK) 3.7 19:06:02 10° SW 19:09:53 87° SSE 19:23:38 10° ENE
CZ-4C R/B 2.7 19:16:55 10° SSE 19:19:57 21° ESE 19:23:26 10° ENE
Okean O Rocket 3.2 19:20:57 10° ESE 19:24:04 20° ENE 19:27:10 10° NNE
Cosmos 1954 Rocket 4.0 19:19:14 10° NNW 19:24:26 79° ENE 19:29:35 10° SSE
Cosmos 1697 Rocket 3.3 19:19:07 10° NNW 19:24:30 44° ENE 19:29:49 10° SE
ERS-1 Rocket 3.2 19:20:59 10° SE 19:25:49 52° ENE 19:30:40 10° N
ATLAS 3B R/B 3.5 19:18:38 10° NNW 19:26:12 49° NE 19:33:19 10° ESE
Cosmos 2360 4.5 19:21:17 10° NNW 19:27:00 75° WSW 19:32:41 10° SSE
Cosmos 1867 3.6 19:22:38 10° SSW 19:28:03 87° ESE 19:33:33 10° NE
Cosmos 332 Rocket 3.9 19:26:16 10° NNW 19:31:00 62° ENE 19:35:41 10° SSE
Helios 1A Rocket 2.5 19:28:08 10° NNE 19:31:13 46° E 19:34:15 10° S
Meteor 1-31 Rocket 2.5 19:28:30 10° SSE 19:32:00 89° W 19:35:29 10° NNW
MOS 1 4.4 19:30:57 10° SSE 19:36:33 69° ENE 19:42:13 10° N
Okean-O 3.9 19:33:10 10° ESE 19:36:46 26° ENE 19:40:22 10° N
Cosmos 968 Rocket 3.9 19:34:17 10° N 19:39:21 48° ENE 19:44:08 11° SE
Cosmos 676 Rocket 4.0 19:34:40 10° NNW 19:39:55 79° ENE 19:45:05 10° SSE
Meteor 2-1 Rocket 4.4 19:36:47 10° S 19:42:19 53° E 19:47:45 10° NNE
Cosmos 2173 Rocket 4.2 19:37:30 10° SSE 19:43:23 52° E 19:49:21 10° NNE
Cosmos 1455 Rocket 4.2 19:42:57 11° SE 19:46:18 25° E 19:49:54 10° NE
Aureole 1 4.5 19:47:45 10° S 19:51:00 65° ESE 19:55:02 10° NNE
Okean 1 Rocket 3.1 19:47:56 10° S 19:52:12 56° E 19:56:31 10° NNE
Cosmos 1980 Rocket 3.1 19:47:19 10° N 19:52:31 35° NE 19:56:48 14° ESE
SL-08 R/B 3.5 19:48:23 10° NNE 19:53:08 52° E 19:57:46 10° S
ARIANE 6 FM1 Upper Stage 4.4 19:50:29 10° WNW 19:53:47 25° WSW 19:57:05 10° S
CZ-4 R/B 2.2 19:54:47 10° S 19:58:15 43° W 20:01:45 10° NNW
Meteor 2-3 Rocket 3.7 19:52:45 10° N 19:58:23 74° ENE 20:03:58 10° SSE
CZ-4B R/B 4.4 19:58:30 13° E 19:59:46 15° ENE 20:01:48 10° NNE
Cosmos 1782 3.9 19:59:06 18° ESE 20:00:12 21° E 20:02:54 10° NE
Cosmos 1850 Rocket 4.4 19:57:38 10° N 20:02:39 48° ENE 20:06:16 18° SE
ASTEX 1 4.0 19:59:39 10° S 20:04:30 57° W 20:09:24 10° NNW
CZ-4B R/B 3.4 20:02:26 10° SSE 20:08:06 81° WSW 20:13:47 10° NNW
Cosmos 1833 Rocket 3.3 20:03:44 10° SW 20:09:16 61° WNW 20:14:51 10° NNE
Cosmos 1110 Rocket 4.0 20:04:18 10° SSW 20:09:33 76° ESE 20:14:52 10° NNE
Cosmos 1802 Rocket 4.1 20:03:46 10° S 20:09:50 58° E 20:15:52 10° NNE
Terra 2.1 20:07:43 10° S 20:12:21 65° WSW 20:17:02 10° NNW
Sich 1 Rocket 3.5 20:10:41 10° S 20:15:02 87° E 20:19:25 10° N
Gbstr 26 Del rocket 3.8 20:10:34 10° WNW 20:15:35 49° NNE 20:18:53 16° E
SJ 16-02 4.0 20:19:23 10° WNW 20:21:28 13° W 20:23:32 10° SW
YAOGAN 11 4.0 20:18:21 10° NNE 20:22:45 68° ESE 20:26:53 12° S
CZ-2C R/B 4.3 20:23:39 13° ENE 20:23:39 13° ENE 20:24:56 10° NE
USA 229 DEB 4.3 20:20:06 10° NW 20:27:41 68° WSW 20:34:05 18° SSE
USA 229 4.3 20:20:09 10° NW 20:27:45 69° WSW 20:34:07 18° SSE
Cosmos 1743 2.2 20:24:58 10° N 20:27:55 52° E 20:28:34 42° SE
Meteor 1-27 4.2 20:24:05 12° S 20:29:24 66° E 20:34:58 10° NNE
Cosmos 44 Rocket 3.3 20:24:56 10° SSW 20:29:57 82° ESE 20:35:09 10° NE
Cosmos 1459 Rocket 4.2 20:24:36 10° SSW 20:30:51 75° W 20:37:04 10° N
ISS -3.9 20:28:09 10° SW 20:31:27 65° SE 20:34:47 10° ENE
Cosmos 2100 Rocket 4.4 20:28:19 10° SSW 20:34:26 64° W 20:40:42 10° N
Ariane Rocket 3.6 20:32:21 25° ESE 20:34:40 40° ENE 20:39:23 10° N
ADEOS 4.4 20:32:34 10° S 20:37:30 47° W 20:42:33 10° NNW
ATLAS 2AS CENTAUR R/B 4.3 20:32:40 10° WSW 20:39:03 38° NW 20:45:21 10° NNE
Spot 2 Rocket 3.7 20:36:58 19° S 20:40:34 69° WSW 20:45:36 10° NNW
BREEZE-M DEB (TANK) 3.5 20:39:43 10° WNW 20:42:55 74° SSW 20:47:10 25° SE
Cosmos 2369 4.3 20:38:13 10° NNW 20:43:41 44° ENE 20:46:24 27° ESE
SL-4 R/B 2.4 20:40:02 10° WNW 20:43:43 44° SW 20:44:44 35° S
MOS 1-B 4.5 20:39:56 19° S 20:44:08 74° WSW 20:49:58 10° NNW
Cosmos 2082 Rocket 2.3 20:40:45 16° S 20:45:16 55° ESE 20:50:50 10° NNE
Cosmos 2322 Rocket 4.4 20:42:33 10° N 20:45:32 14° NE 20:48:30 10° ENE
Cosmos 909 Rocket 4.2 20:41:53 10° S 20:48:03 50° ESE 20:54:09 10° NE
USA 305 4.2 20:45:45 10° NW 20:49:18 28° NNE 20:51:07 19° ENE
Cosmos 2151 4.2 20:49:03 10° NNE 20:52:30 25° ENE 20:52:53 25° E
Cosmos 2233 Rocket 3.9 20:51:19 19° S 20:55:57 82° E 21:02:09 10° N
Cosmos 1607 3.8 20:50:14 10° SSW 20:56:20 76° ESE 21:02:35 10° NE
USA 234 4.2 20:51:12 10° ENE 20:55:31 25° ESE 20:55:31 25° ESE
Cosmos 2228 2.8 20:55:36 34° S 20:57:21 90° NNW 21:01:29 10° N
USA 186 2.9 20:58:27 27° WSW 20:58:47 28° W 21:01:09 10° NW
Cosmos 1626 Rocket 4.0 20:55:12 10° N 20:59:21 43° ENE 21:00:04 39° ESE
Okean O Rocket 2.5 20:57:28 21° SSW 20:59:57 42° W 21:04:02 10° NNW
DELTA 2 R/B (1) 4.0 20:57:46 10° SW 21:02:52 38° SSE 21:03:11 38° SSE
Tsikada Rocket 3.9 20:59:29 10° N 21:05:42 89° W 21:08:51 31° S
Cosmos 1992 Rocket 4.1 21:05:58 40° SSE 21:07:27 55° ESE 21:12:32 10° NNE
CZ-4C R/B 2.8 21:03:31 10° WSW 21:07:32 45° NW 21:12:37 10° NNE
Cosmos 1452 Rocket 4.3 21:02:54 10° SW 21:07:59 52° WNW 21:13:06 10° NNE
Cosmos 1697 Rocket 4.2 21:03:26 10° NW 21:08:13 29° WSW 21:11:52 15° SSW
COSMOS 2406 3.6 21:07:30 38° SE 21:08:25 40° ESE 21:13:45 10° NE
SL-16 R/B 3.3 21:07:44 10° N 21:12:51 33° NE 21:14:58 25° E
Okean-O 4.0 21:10:27 19° SSW 21:12:54 32° W 21:16:50 10° NNW
ATLAS 3B R/B 3.5 21:09:43 10° NW 21:16:58 46° WSW 21:20:47 26° S
CZ-4B R/B 3.4 21:19:07 45° S 21:20:32 72° WSW 21:25:19 10° NNW
Cosmos 2098 Rocket 4.0 21:25:32 38° E 21:25:37 38° E 21:30:03 10° NNE
Cosmos 1302 Rocket 4.4 21:21:11 13° SW 21:25:40 59° WNW 21:30:47 10° NNE
Cosmos 2333 Rocket 3.2 21:20:33 10° NNW 21:25:47 36° NE 21:27:39 29° E
Meteor 1-25 Rocket 4.4 21:25:44 10° N 21:31:20 55° ENE 21:32:32 46° ESE
CZ-4B R/B 3.8 21:33:11 31° W 21:33:15 31° W 21:36:18 10° NNW
Cosmos 2061 Rocket 4.3 21:29:50 22° SSW 21:33:58 62° W 21:40:11 10° N
Cosmos 1544 Rocket 3.4 21:35:33 69° SSW 21:36:03 83° W 21:40:24 10° N
SPOT 3 Rocket 4.3 21:34:29 31° SSW 21:36:25 44° W 21:41:21 10° NNW
Cosmos 1980 Rocket 3.1 21:31:16 10° NW 21:36:32 39° WSW 21:38:33 29° SSW
NOSS 3-3 (A) 3.6 21:34:26 20° SW 21:38:03 83° NW 21:44:07 10° NE
Cosmos 1933 3.5 21:44:20 63° N 21:44:20 63° N 21:47:34 10° N
Cosmos 2084 Rocket 3.4 21:46:25 10° NW 21:50:19 74° WNW 21:50:19 74° WNW
Helios 1B rocket 3.7 21:51:51 26° NE 21:51:51 26° NE 21:54:02 10° N
Cosmos 1758 Rocket 3.9 21:49:08 10° NNW 21:53:24 54° W 21:53:42 53° WSW
Cosmos 1375 Rocket 4.5 21:52:57 51° S 21:54:27 67° ESE 22:00:57 10° NE
Cosmos 1464 Rocket 3.9 21:53:23 56° SSE 21:54:32 68° E 22:00:39 10° NNE
Cosmos 1513 Rocket 4.5 21:56:21 45° SSW 21:58:27 79° W 22:04:40 10° N
Gbstr 26 Del rocket 4.0 21:57:32 10° WNW 22:00:52 35° WSW 22:00:52 35° WSW
Cosmos 2360 Rocket 3.0 21:57:41 10° NNW 22:03:03 41° ENE 22:04:14 36° E
NOSS 3-3 (C) 4.0 22:02:52 24° SW 22:06:02 65° NW 22:12:11 10° NNE
Meteor 2-10 4.2 22:00:35 10° N 22:06:18 69° ENE 22:06:57 63° ESE
ALOS 2 4.2 22:06:32 24° ENE 22:06:32 24° ENE 22:09:54 10° NNE
ARIANE 5 R/B 4.0 22:07:11 29° ENE 22:07:11 29° ENE 22:10:48 10° N
ISS -1.8 22:05:27 10° W 22:08:14 30° NNW 22:08:14 30° NNW
Cosmos 1072 Rocket 4.4 22:08:18 55° SSW 22:09:47 86° W 22:16:07 10° N
Cosmos 1825 Rocket 4.0 22:05:31 10° N 22:09:11 55° NE 22:09:11 55° NE
USA 305 4.3 22:11:09 10° NW 22:13:09 27° WNW 22:13:09 27° WNW
Cosmos 1602 Rocket 4.2 22:14:54 10° NNW 22:18:42 48° WNW 22:18:42 48° WNW
Cosmos 1092 Rocket 4.4 22:14:09 10° N 22:20:03 47° ENE 22:20:51 44° E
Cosmos 2219 Rocket 3.2 22:15:22 10° N 22:20:33 36° NE 22:21:48 32° E
Cosmos 1437 Rocket 4.4 22:21:47 27° WNW 22:21:47 27° WNW 22:24:25 10° N
Cosmos 540 Rocket 4.4 22:23:21 35° ENE 22:23:21 35° ENE 22:27:00 10° NE
NOSS 3-4 (A) 4.1 22:16:30 10° NNW 22:23:11 61° NE 22:26:00 39° ESE
NOSS 3-4 (C) 4.1 22:17:07 10° NNW 22:23:49 61° NE 22:26:40 39° ESE
Cosmos 2034 Rocket 3.9 22:27:37 67° SSE 22:28:32 82° E 22:34:55 10° N
Cosmos 2082 Rocket 4.1 22:24:54 10° WSW 22:29:40 27° NW 22:34:27 10° N
Cosmos 1428 Rocket 4.3 22:24:13 10° N 22:30:29 82° W 22:31:20 67° SSW
Cosmos 2322 Rocket 2.2 22:24:58 10° NNW 22:30:38 70° ENE 22:31:03 67° E
Meteor 1-5 Rocket 4.5 22:33:59 10° NNW 22:39:33 58° W 22:40:03 56° WSW
USA 234 3.1 22:33:26 10° NE 22:40:02 89° SE 22:42:49 38° SW
Cosmos 1763 Rocket 3.6 22:45:39 66° ENE 22:45:39 66° ENE 22:50:21 10° NNE
Cosmos-2242 4.0 22:47:28 40° NNE 22:47:28 40° NNE 22:50:13 10° NNE
Helios 1A 4.4 22:45:36 10° N 22:48:44 30° WNW 22:48:44 30° WNW
Cosmos 1503 Rocket 4.0 22:44:09 10° NNW 22:49:02 78° N 22:49:02 78° N
Cosmos 1777 Rocket 4.1 22:44:24 10° NNW 22:49:16 69° WNW 22:49:16 69° WNW
Cosmos 2278 3.8 22:44:05 10° NNW 22:49:38 61° WSW 22:49:38 61° WSW
CZ-2C R/B 4.2 22:47:07 10° NNE 22:51:56 36° E 22:51:56 36° E
Cosmos 990 Rocket 4.2 22:47:36 10° NNW 22:52:30 64° NE 22:52:30 64° NE
ARGOS Delta rocket 4.2 22:51:41 10° NNE 22:56:07 61° ENE 22:56:07 61° ENE
SL-16 R/B 2.9 22:51:43 10° NW 22:56:47 41° W 22:56:47 41° W
Cosmos 1634 Rocket 3.8 22:57:50 75° SE 22:58:10 78° E 23:04:22 10° N
Cosmos 1354 Rocket 4.1 22:54:22 10° NNW 22:59:19 71° NE 22:59:19 71° NE
Cosmos 2279 Rocket 4.1 23:01:48 58° ESE 23:02:03 58° E 23:08:12 10° NNE
SeaSat 1 3.8 23:03:53 28° ENE 23:04:51 31° NE 23:09:07 10° N
Meteor 2-6 Rocket 4.4 23:06:35 64° E 23:06:35 64° E 23:12:27 10° NNE
Cosmos 2221 4.2 23:09:57 26° NE 23:09:57 26° NE 23:12:13 10° NNE
Cosmos 2333 Rocket 3.1 23:04:52 10° NW 23:09:39 37° W 23:09:39 37° W
Meteor 2-2 Rocket 4.1 23:10:20 80° W 23:10:22 80° W 23:16:07 10° N
CZ-2C R/B 3.3 23:16:22 44° ENE 23:16:38 45° ENE 23:21:37 10° N
Cosmos 1833 4.2 23:17:41 72° W 23:17:52 73° WNW 23:23:31 10° NNE
BREEZE-M DEB (TANK) 3.8 23:10:20 10° W 23:17:54 68° N 23:22:55 10° E
Cosmos 2026 Rocket 4.5 23:20:39 10° NNW 23:26:43 48° W 23:27:17 46° WSW
Aureole 1 Rocket 3.7 23:26:19 10° NNW 23:31:50 85° ENE 23:32:03 83° ESE
Cosmos 2297 Rocket 3.8 23:33:58 22° E 23:33:58 22° E 23:37:35 10° NE
Cosmos 2266 Rocket 4.2 23:27:59 10° N 23:33:53 54° ENE 23:34:28 52° E
Cosmos 2322 4.3 23:28:52 10° NNW 23:34:24 49° ENE 23:35:16 45° E
Cosmos 44 3.9 23:32:26 10° NNW 23:37:46 55° NE 23:38:07 54° ENE
ALOS 2 4.1 23:43:55 29° WNW 23:43:55 29° WNW 23:46:36 10° NNW
ARIANE 5 R/B 4.4 23:44:33 24° WNW 23:44:33 24° WNW 23:47:05 10° NW
Cosmos 372 Rocket 4.1 23:38:59 10° NNW 23:43:34 69° N 23:43:34 69° N
RESURS DK-1 4.0 23:41:16 10° N 23:44:13 29° NE 23:44:13 29° NE
Cosmos 1937 Rocket 4.2 23:40:26 10° N 23:45:23 45° ENE 23:45:41 44° ENE
ISS0.123:50:53ENE23:50:53ENE23:41:23WNW
Cosmos 2360 Rocket 3.4 23:41:54 10° NW 23:45:58 31° W 23:45:58 31° W
Meteor 1-11 Rocket 3.8 23:43:39 10° N 23:49:20 64° ENE 23:49:31 64° E
GP-B 3.9 23:45:59 10° N 23:49:14 49° N 23:49:14 49° N
Cosmos 468 Rocket 4.3 23:51:08 61° WNW 23:51:08 61° WNW 23:56:13 10° NNE
Meteor 1-10 Rocket 4.2 23:52:26 74° ESE 23:52:31 74° E 23:58:26 10° NNE
